Location: Newark
(23.3970°S, 47.6010°W)
Time: 14:21:03
(UTC+00:00)

deb Explorer IX - Pass Details

Date: 21 February 2020
Orbit: 547 x 1100 km, 38.8° (Epoch: 29 March)

Event Time Altitude Azimuth Distance (km) Brightness Sun altitude
Rises 03:30:44 0° 253° (WSW) 3,845 - -55.8°
Reaches altitude 10° 03:34:03 10° 240° (WSW) 2,935 - -55.7°
Maximum altitude 03:39:46 24° 188° (S) 2,098 - -55.6°
Drops below altitude 10° 03:45:31 10° 136° (SE) 2,938 - -55.4°
Exits shadow 03:48:22 - 124° (SE) 3,717 ? -55.3°
Sets 03:48:50 0° 122° (ESE) 3,849 ? -55.3°
